Regional Weather Roundup
Issued by NWS Charleston, SC

Current Version | Previous Version | Graphics & Text | Print | Product List | Glossary On
Versions: 1 2 3 4 5 6 7 8 9 10 11 12 13 14 15 16 17 18 19 20 21 22 23 24 25 26 27 28 29 30 31 32 33 34 35 36 37 38 39 40 41 42 43 44 45 46 47 48 49 50
569
ASUS42 KCHS 210625
RWRCHS

REGIONAL WEATHER ROUNDUP
NATIONAL WEATHER SERVICE CHARLESTON SC
200 AM EDT THU SEP 21 2017

NOTE: "FAIR" INDICATES FEW OR NO CLOUDS BELOW 12,000 FEET WITH NO
SIGNIFICANT WEATHER AND/OR OBSTRUCTIONS TO VISIBILITY.

NOT ALL STATIONS ARE QUALITY CONTROLLED. USE DATA WITH CAUTION...
ESPECIALLY DEWPOINT OBSERVATIONS.

SCZ027-030-031-034>040-042>050-210700-
...SOUTHEAST SOUTH CAROLINA...

CITY           SKY/WX    TMP DP  RH WIND       PRES   REMARKS
N CHARLESTON   CLEAR     74  73  97 S3        30.01S
6HR MIN TEMP:  74; 6HR MAX TEMP:  79;

WATERFRONT PRK   N/A     78  75  90 CALM      29.86S
JOHNS ISLAND   FAIR      75  73  94 CALM      30.02S
PINOPOLIS        N/A     75  73  94 VRB3      29.94F
MONCKS CORNER  FAIR      70  70 100 CALM      30.01S
SUMMERVILLE    FAIR      72  70  94 CALM      30.03R
BEAUFORT MCAS  CLEAR     74  73  97 CALM      30.02S
6HR MIN TEMP:  74; 6HR MAX TEMP:  81;

BEAUFORT ARPT  FAIR      75  73  94 CALM      30.01S
HILTON HEAD IS CLEAR     75  75 100 CALM      30.03R
WALTERBORO     CLEAR     72  70  94 CALM      30.03S
ALLENDALE      NOT AVBL

...SOUTHERN MIDLANDS AND PEE DEE...

CITY           SKY/WX    TMP DP  RH WIND       PRES   REMARKS
GEORGETOWN     FAIR      72  72 100 CALM      30.02S
KINGSTREE      FAIR      70  68  94 CALM      30.01F
ORANGEBURG     CLEAR     72  71  97 CALM      30.02F FOG
6HR MIN TEMP:  72; 6HR MAX TEMP:  80;

BARNWELL       FAIR      73  72  94 CALM      30.02F
AIKEN          FAIR      70  68  94 SE6       30.06S
MANNING        FAIR      72  72 100 CALM      30.02S
COLUMBIA       PTCLDY    73  68  84 CALM      30.01R
6HR MIN TEMP:  73; 6HR MAX TEMP:  84;

SUMTER         CLEAR     73  70  90 S3        30.00S
6HR MIN TEMP:  73; 6HR MAX TEMP:  79;

FLORENCE       CLEAR     70  69  97 CALM      30.02S
6HR MIN TEMP:  70; 6HR MAX TEMP:  77;

MYRTLE BEACH   CLEAR     75  73  93 W7        30.02S
N MYRTLE BEACH CLEAR     75  73  93 W5        30.00S
6HR MIN TEMP:  75; 6HR MAX TEMP:  80;


$$

GAZ063-065-086>088-099>101-113>116-118-119-134>141-150-210700-
...SOUTHEAST GEORGIA...

CITY           SKY/WX    TMP DP  RH WIND       PRES   REMARKS
SAVANNAH ARPT  CLEAR     73  70  90 CALM      30.02S
6HR MIN TEMP:  72; 6HR MAX TEMP:  77;

HUNTER AAF     CLEAR     73  71  94 CALM      29.99S
6HR MIN TEMP:  72; 6HR MAX TEMP:  75;

FORT STEWART   CLEAR     71  69  92 CALM      29.99S
6HR MIN TEMP:  71; 6HR MAX TEMP:  76;

STATESBORO     CLEAR     71  70  95 CALM      30.02S
SYLVANIA       CLEAR     71  71 100 CALM      30.04S
CLAXTON        FAIR      72  71  98 CALM      30.02S FOG

...CSRA...CENTRAL AND FAR SOUTHEAST GEORGIA...

CITY           SKY/WX    TMP DP  RH WIND       PRES   REMARKS
THOMSON        CLEAR     69  68  94 CALM      30.07S
AUGUSTA-BUSH   FOG       73  71  93 CALM      30.01S VSB 1/4
6HR MIN TEMP:  71; 6HR MAX TEMP:  80;

AUGUSTA-DANIEL CLEAR     77  71  82 SE5       30.02S
SWAINSBORO     FAIR      72  72 100 CALM      30.03F
VIDALIA        CLEAR     73  72  94 CALM      30.02F
EASTMAN        FAIR      71  71 100 CALM      30.05S FOG
HAZLEHURST     FAIR      73  71  92 CALM      30.01S
ALMA           CLEAR     70  69  97 CALM      30.01F FOG
6HR MIN TEMP:  70; 6HR MAX TEMP:  75;

WAYCROSS       PTCLDY    73  70  91 CALM      30.01F
JESUP          NOT AVBL
BAXLEY         FAIR      70  70 100 CALM      30.01S
BRUNSWICK      CLEAR     73  72  94 CALM      30.02S
SAINT SIMONS   CLEAR     80  75  84 SW5       30.00F
6HR MIN TEMP:  79; 6HR MAX TEMP:  82;


$$

SCZ027-028-034-036>038-045-046-048>050-GAZ119-141-210700-
...LAKE AND SUPPLEMENTAL COASTAL OBSERVATIONS...

STATION/POSITION TIME  TEMP    WIND        PRES    WAVE   SWELL
                       AIR SEA DIR/SP/G            HT/PER HT/PER/DIR
                 (UTC) (F)     (DEG/KT/KT) (MB)    (FT/S) (FT/S/D)
WINYAH BAY       NOT AVBL
LAKE MURRAY      0520   75                 1015.6
ACE BASIN NERRS  0445   75        CALM     1017.0
FORT PULASKI     0542   78 80  180/  1/  2 1016.8R
SAPELO ISLAND    0500   79        CALM     1016.0

$$

ANZ835-935-AMZ111-154-330-350-352-354-370-450-454-472-210700-
...C-MAN AND BUOY OBSERVATIONS...

STATION/POSITION TIME  TEMP    WIND        PRES    WAVE   SWELL
                       AIR SEA DIR/SP/G            HT/PER HT/PER/DIR
                 (UTC) (F)     (DEG/KT/KT) (MB)    (FT/S) (FT/S/D)
BUOY 41004       0550   81 81  220/  8/ 10 1015.9F   3/12   3/ 80/12
BUOY 41008       0550   81 80  170/  8/  8 1016.1S   2/12   2/ 50/12
FOLLY BEACH CMAN 0600   80     210/ 10/ 11 1016.9F
CAPERS NEARSHORE 0508   77 80  230/ 10/ 12 1016.2S
FRIPP NEARSHORE  0508   80     210/  8/ 10 1022.0F


STATION/POSITION TIME  TEMP    WIND        PRES    WAVE   SWELL
                       AIR SEA DIR/SP/G            HT/PER HT/PER/DIR
                 (UTC) (F)     (DEG/KT/KT) (MB)    (FT/S) (FT/S/D)
5E ST. MARYS GA  0600      82                N/A     2/13   2/ 90/13
FRYING PAN BUOY  0550   81 82  250/ 10/ 14 1015.9R   3/12   2/110/12
BUOY 41025       0550   77 75  260/  4/  6 1015.1F   5/11   5/ 70/11
CAPE LOOKOUT NC  0600   77     260/  6/  7 1015.2S
BUOY 41002       0550   79 80  190/  4/  6 1016.3F   6/11   7/ 20/11
BUOY 41010       0550      85  100/  6/ 10 1015.5F   5/12   5/12
ST AUGUSTINE FL  0600   81 84  180/  5/  7 1016.0F


$$




USA.gov is the U.S. government's official web portal to all federal, state and local government web resources and services.